QLK19 YBHM-YBCS

Flight info

Callsign QLK19
Flight time 1h 0m
Altitude 30000
Route HM765 DCT TOOU DCT IFLEI DCT HENDO
Aircraft A319/M-SDE3FGHIRWY/LB1

Departure

Time 2026-05-09 00:48
Airport Hamilton Island Airport (YBHM)

Arrival

Time 2026-05-09 01:49
Airport Cairns International Airport (YBCS)
Time Latitude Longitude Altitude Speed Heading
2026-05-09 00:33 -20.35256 148.94993 20 ft 0 kts 143°
2026-05-09 00:45 -20.35258 148.94994 20 ft 2 kts 143°
2026-05-09 00:45 -20.35286 148.95010 22 ft 7 kts 163°
2026-05-09 00:45 -20.35346 148.95002 20 ft 10 kts 199°
2026-05-09 00:45 -20.35389 148.94964 22 ft 8 kts 230°
2026-05-09 00:46 -20.35409 148.94906 22 ft 9 kts 279°
2026-05-09 00:46 -20.35363 148.94855 22 ft 11 kts 323°
2026-05-09 00:46 -20.35295 148.94801 21 ft 14 kts 323°
2026-05-09 00:46 -20.35211 148.94734 20 ft 17 kts 323°
2026-05-09 00:47 -20.35128 148.94688 19 ft 11 kts
2026-05-09 00:47 -20.35083 148.94669 19 ft 7 kts 283°
2026-05-09 00:47 -20.35118 148.94658 19 ft 7 kts 146°
2026-05-09 00:47 -20.35209 148.94734 20 ft 42 kts 142°
2026-05-09 00:48 -20.35642 148.95083 24 ft 113 kts 143°
2026-05-09 00:48 -20.36405 148.95684 266 ft 145 kts 142°
2026-05-09 00:48 -20.37196 148.96339 1007 ft 145 kts 142°
2026-05-09 00:48 -20.38012 148.97022 1745 ft 151 kts 141°
2026-05-09 00:49 -20.38890 148.97711 2197 ft 164 kts 142°
2026-05-09 00:49 -20.39893 148.98446 2486 ft 185 kts 143°
2026-05-09 00:49 -20.41023 148.99250 2790 ft 206 kts 144°
2026-05-09 00:49 -20.42513 148.99677 3102 ft 243 kts 179°
2026-05-09 00:50 -20.44160 148.98976 3652 ft 273 kts 217°
2026-05-09 00:50 -20.45187 148.97260 4559 ft 281 kts 255°
2026-05-09 00:50 -20.45148 148.95187 5581 ft 285 kts 288°
2026-05-09 00:50 -20.44048 148.93471 6661 ft 285 kts 321°
2026-05-09 00:51 -20.42260 148.92575 7611 ft 288 kts 342°
2026-05-09 00:51 -20.40317 148.92059 8515 ft 288 kts 343°
2026-05-09 00:51 -20.38365 148.91542 9361 ft 290 kts 343°
2026-05-09 00:51 -20.36399 148.91018 10161 ft 293 kts 342°
2026-05-09 00:52 -20.34371 148.90477 10548 ft 311 kts 343°
2026-05-09 00:52 -20.32202 148.89896 10716 ft 333 kts 342°
2026-05-09 00:52 -20.29994 148.88997 11014 ft 344 kts 329°
2026-05-09 00:52 -20.28016 148.87574 11583 ft 345 kts 317°
2026-05-09 00:53 -20.26379 148.85711 12232 ft 344 kts 304°
2026-05-09 00:53 -20.25163 148.83517 12893 ft 345 kts 296°
2026-05-09 00:53 -20.24068 148.81236 13538 ft 347 kts 296°
2026-05-09 00:53 -20.22966 148.78942 14144 ft 349 kts 296°
2026-05-09 00:54 -20.21853 148.76632 14678 ft 352 kts 296°
2026-05-09 00:54 -20.20746 148.74341 15227 ft 354 kts 296°
2026-05-09 00:54 -20.19614 148.72000 15793 ft 356 kts 296°
2026-05-09 00:54 -20.18477 148.69653 16363 ft 357 kts 296°
2026-05-09 00:55 -20.17338 148.67301 16932 ft 359 kts 296°
2026-05-09 00:55 -20.16191 148.64932 17504 ft 361 kts 296°
2026-05-09 00:55 -20.15035 148.62554 18083 ft 363 kts 296°
2026-05-09 00:55 -20.13870 148.60157 18605 ft 366 kts 296°
2026-05-09 00:56 -20.12703 148.57754 19117 ft 367 kts 296°
2026-05-09 00:56 -20.11529 148.55334 19635 ft 368 kts 296°
2026-05-09 00:56 -20.10353 148.52910 20150 ft 370 kts 296°
2026-05-09 00:56 -20.09171 148.50475 20672 ft 371 kts 296°
2026-05-09 00:57 -20.07981 148.48029 21176 ft 373 kts 296°
2026-05-09 00:57 -20.06785 148.45573 21655 ft 375 kts 296°
2026-05-09 00:57 -20.05586 148.43109 22122 ft 377 kts 296°
2026-05-09 00:57 -20.04376 148.40625 22562 ft 378 kts 296°
2026-05-09 00:58 -20.03163 148.38135 23018 ft 380 kts 296°
2026-05-09 00:58 -20.01946 148.35633 23438 ft 382 kts 296°
2026-05-09 00:58 -20.00721 148.33119 23837 ft 384 kts 296°
2026-05-09 00:58 -19.99489 148.30596 24183 ft 385 kts 296°
2026-05-09 00:59 -19.98252 148.28063 24537 ft 386 kts 296°
2026-05-09 00:59 -19.97013 148.25524 24890 ft 387 kts 296°
2026-05-09 00:59 -19.95772 148.22978 25247 ft 388 kts 296°
2026-05-09 00:59 -19.94526 148.20427 25596 ft 389 kts 296°
2026-05-09 01:00 -19.93275 148.17868 25947 ft 391 kts 296°
2026-05-09 01:00 -19.92020 148.15302 26250 ft 392 kts 296°
2026-05-09 01:00 -19.90762 148.12726 26563 ft 394 kts 295°
2026-05-09 01:00 -19.89502 148.10143 26879 ft 395 kts 295°
2026-05-09 01:01 -19.88233 148.07550 27193 ft 396 kts 296°
2026-05-09 01:01 -19.86954 148.04944 27501 ft 398 kts 296°
2026-05-09 01:01 -19.85673 148.02336 27815 ft 399 kts 295°
2026-05-09 01:01 -19.84388 147.99722 28126 ft 400 kts 295°
2026-05-09 01:02 -19.83098 147.97100 28429 ft 401 kts 295°
2026-05-09 01:02 -19.81806 147.94471 28723 ft 402 kts 295°
2026-05-09 01:02 -19.80513 147.91832 29003 ft 403 kts 295°
2026-05-09 01:02 -19.79213 147.89178 29267 ft 405 kts 295°
2026-05-09 01:03 -19.77912 147.86528 29539 ft 406 kts 295°
2026-05-09 01:03 -19.76600 147.83860 29802 ft 408 kts 295°
2026-05-09 01:03 -19.75286 147.81188 30072 ft 409 kts 295°
2026-05-09 01:03 -19.73978 147.78524 30150 ft 402 kts 295°
2026-05-09 01:04 -19.71427 147.73341 30153 ft 393 kts 295°
2026-05-09 01:04 -19.68893 147.68207 30153 ft 392 kts 295°
2026-05-09 01:05 -19.66369 147.63109 30156 ft 392 kts 295°
2026-05-09 01:06 -19.62573 147.55423 30154 ft 392 kts 295°
2026-05-09 01:06 -19.60049 147.50304 30147 ft 392 kts 295°
2026-05-09 01:07 -19.57517 147.45186 30143 ft 391 kts 295°
2026-05-09 01:07 -19.54988 147.40080 30144 ft 391 kts 295°
2026-05-09 01:08 -19.52454 147.34967 30135 ft 391 kts 296°
2026-05-09 01:08 -19.49921 147.29858 30131 ft 391 kts 295°
2026-05-09 01:09 -19.47385 147.24753 30139 ft 392 kts 296°
2026-05-09 01:09 -19.44844 147.19641 30147 ft 392 kts 296°
2026-05-09 01:10 -19.42305 147.14529 30122 ft 393 kts 296°
2026-05-09 01:10 -19.39752 147.09402 30131 ft 394 kts 296°
2026-05-09 01:11 -19.37193 147.04276 30131 ft 394 kts 296°
2026-05-09 01:11 -19.34627 146.99132 30128 ft 395 kts 296°
2026-05-09 01:12 -19.32065 146.93987 30122 ft 395 kts 296°
2026-05-09 01:12 -19.29515 146.88882 30125 ft 395 kts 296°
2026-05-09 01:13 -19.26946 146.83743 30126 ft 395 kts 296°
2026-05-09 01:13 -19.24362 146.78609 30125 ft 395 kts 296°
2026-05-09 01:14 -19.21786 146.73480 30124 ft 394 kts 296°
2026-05-09 01:14 -19.19227 146.68351 30124 ft 395 kts 296°
2026-05-09 01:15 -19.16657 146.63214 30127 ft 395 kts 296°
2026-05-09 01:15 -19.14079 146.58086 30127 ft 395 kts 296°
2026-05-09 01:16 -19.11502 146.52960 30129 ft 395 kts 296°
2026-05-09 01:16 -19.08219 146.48298 30133 ft 402 kts 315°
2026-05-09 01:17 -19.03240 146.45456 30132 ft 420 kts 338°
2026-05-09 01:17 -19.01346 146.44979 30133 ft 422 kts 340°
2026-05-09 01:17 -18.95601 146.43605 30115 ft 423 kts 341°
2026-05-09 01:18 -18.89852 146.42236 30121 ft 424 kts 341°
2026-05-09 01:18 -18.84089 146.40858 30120 ft 425 kts 341°
2026-05-09 01:19 -18.78325 146.39480 30127 ft 425 kts 340°
2026-05-09 01:19 -18.72560 146.38097 30129 ft 425 kts 341°
2026-05-09 01:20 -18.66787 146.36719 30115 ft 425 kts 341°
2026-05-09 01:20 -18.61015 146.35342 30116 ft 426 kts 341°
2026-05-09 01:21 -18.55237 146.33960 30120 ft 426 kts 341°
2026-05-09 01:21 -18.49458 146.32577 30120 ft 426 kts 341°
2026-05-09 01:22 -18.43676 146.31200 30129 ft 426 kts 341°
2026-05-09 01:22 -18.37901 146.29823 30102 ft 426 kts 341°
2026-05-09 01:23 -18.32114 146.28446 30109 ft 426 kts 341°
2026-05-09 01:23 -18.26355 146.27079 29758 ft 427 kts 342°
2026-05-09 01:24 -18.23452 146.26391 29491 ft 428 kts 342°
2026-05-09 01:24 -18.20547 146.25702 29227 ft 428 kts 342°
2026-05-09 01:24 -18.17632 146.25010 28968 ft 429 kts 342°
2026-05-09 01:24 -18.14719 146.24319 28707 ft 429 kts 342°
2026-05-09 01:25 -18.11802 146.23629 28453 ft 430 kts 342°
2026-05-09 01:25 -18.08875 146.22935 28201 ft 431 kts 342°
2026-05-09 01:25 -18.05950 146.22239 27947 ft 431 kts 342°
2026-05-09 01:25 -18.03014 146.21541 27691 ft 432 kts 342°
2026-05-09 01:26 -18.00088 146.20849 27457 ft 431 kts 342°
2026-05-09 01:26 -17.97165 146.20158 27219 ft 430 kts 342°
2026-05-09 01:26 -17.94252 146.19467 26975 ft 429 kts 342°
2026-05-09 01:26 -17.91343 146.18776 26727 ft 427 kts 342°
2026-05-09 01:27 -17.88450 146.18090 26492 ft 426 kts 342°
2026-05-09 01:27 -17.85560 146.17406 26257 ft 424 kts 342°
2026-05-09 01:27 -17.82682 146.16728 26023 ft 423 kts 343°
2026-05-09 01:27 -17.79818 146.16051 25781 ft 421 kts 343°
2026-05-09 01:28 -17.76999 146.15384 25557 ft 420 kts 343°
2026-05-09 01:28 -17.74155 146.14712 25325 ft 418 kts 343°
2026-05-09 01:28 -17.71350 146.13949 25089 ft 414 kts 338°
2026-05-09 01:28 -17.68697 146.12818 24875 ft 410 kts 332°
2026-05-09 01:29 -17.66107 146.11571 24658 ft 409 kts 332°
2026-05-09 01:29 -17.63526 146.10330 24434 ft 408 kts 332°
2026-05-09 01:29 -17.60953 146.09089 24216 ft 406 kts 332°
2026-05-09 01:29 -17.58388 146.07850 23999 ft 405 kts 332°
2026-05-09 01:30 -17.55829 146.06618 23785 ft 404 kts 333°
2026-05-09 01:30 -17.53276 146.05392 23535 ft 403 kts 333°
2026-05-09 01:30 -17.50730 146.04171 23276 ft 402 kts 333°
2026-05-09 01:30 -17.48192 146.02954 23010 ft 401 kts 333°
2026-05-09 01:31 -17.45654 146.01738 22742 ft 401 kts 333°
2026-05-09 01:31 -17.43121 146.00525 22497 ft 400 kts 333°
2026-05-09 01:31 -17.40591 145.99315 22247 ft 399 kts 333°
2026-05-09 01:31 -17.38077 145.98112 21995 ft 398 kts 333°
2026-05-09 01:32 -17.35555 145.96905 21741 ft 397 kts 333°
2026-05-09 01:32 -17.33049 145.95704 21495 ft 396 kts 333°
2026-05-09 01:32 -17.30549 145.94506 21250 ft 395 kts 333°
2026-05-09 01:32 -17.28056 145.93311 21002 ft 394 kts 333°
2026-05-09 01:33 -17.25566 145.92112 20765 ft 393 kts 332°
2026-05-09 01:33 -17.23250 145.90656 20413 ft 386 kts 321°
2026-05-09 01:33 -17.21270 145.88781 19898 ft 382 kts 311°
2026-05-09 01:33 -17.19702 145.86598 19390 ft 379 kts 302°
2026-05-09 01:34 -17.18295 145.84290 18891 ft 376 kts 302°
2026-05-09 01:34 -17.16886 145.81991 18346 ft 374 kts 302°
2026-05-09 01:34 -17.15485 145.79717 17768 ft 370 kts 302°
2026-05-09 01:34 -17.14097 145.77470 17226 ft 366 kts 302°
2026-05-09 01:35 -17.12723 145.75245 16683 ft 361 kts 302°
2026-05-09 01:35 -17.11368 145.73051 16124 ft 357 kts 302°
2026-05-09 01:35 -17.10027 145.70877 15573 ft 355 kts 302°
2026-05-09 01:35 -17.08691 145.68710 15014 ft 353 kts 302°
2026-05-09 01:36 -17.07365 145.66557 14450 ft 351 kts 302°
2026-05-09 01:36 -17.06044 145.64412 13896 ft 351 kts 303°
2026-05-09 01:36 -17.04723 145.62270 13288 ft 350 kts 303°
2026-05-09 01:36 -17.03405 145.60140 12730 ft 348 kts 303°
2026-05-09 01:37 -17.02092 145.58018 12177 ft 347 kts 303°
2026-05-09 01:37 -17.00780 145.55896 11610 ft 347 kts 304°
2026-05-09 01:37 -16.99474 145.53784 11065 ft 346 kts 304°
2026-05-09 01:37 -16.98179 145.51688 10729 ft 338 kts 303°
2026-05-09 01:38 -16.96932 145.49670 10610 ft 324 kts 304°
2026-05-09 01:38 -16.95735 145.47734 10497 ft 311 kts 303°
2026-05-09 01:38 -16.94574 145.45861 10280 ft 304 kts 304°
2026-05-09 01:38 -16.93169 145.44270 10177 ft 298 kts 327°
2026-05-09 01:39 -16.91291 145.43430 10051 ft 295 kts 352°
2026-05-09 01:39 -16.89281 145.43500 9905 ft 286 kts 16°
2026-05-09 01:39 -16.87496 145.44378 9346 ft 288 kts 38°
2026-05-09 01:39 -16.85894 145.45619 8825 ft 285 kts 39°
2026-05-09 01:40 -16.84327 145.46851 8393 ft 279 kts 39°
2026-05-09 01:40 -16.82792 145.48059 7981 ft 273 kts 39°
2026-05-09 01:40 -16.81291 145.49234 7578 ft 267 kts 39°
2026-05-09 01:40 -16.79816 145.50384 7190 ft 263 kts 39°
2026-05-09 01:41 -16.78364 145.51515 6802 ft 258 kts 40°
2026-05-09 01:41 -16.76938 145.52621 6442 ft 253 kts 40°
2026-05-09 01:41 -16.75540 145.53701 6079 ft 247 kts 40°
2026-05-09 01:41 -16.74174 145.54754 5739 ft 241 kts 42°
2026-05-09 01:42 -16.72852 145.55794 5404 ft 233 kts 45°
2026-05-09 01:42 -16.71761 145.56974 5107 ft 219 kts 57°
2026-05-09 01:42 -16.70979 145.58234 4869 ft 205 kts 66°
2026-05-09 01:42 -16.70447 145.59595 4537 ft 199 kts 77°
2026-05-09 01:43 -16.70169 145.60983 4254 ft 193 kts 86°
2026-05-09 01:43 -16.70122 145.62364 3982 ft 188 kts 95°
2026-05-09 01:43 -16.70310 145.63686 3745 ft 182 kts 105°
2026-05-09 01:43 -16.70696 145.64915 3517 ft 175 kts 114°
2026-05-09 01:44 -16.71253 145.66021 3295 ft 169 kts 123°
2026-05-09 01:44 -16.71950 145.66981 3080 ft 163 kts 131°
2026-05-09 01:44 -16.72740 145.67778 2890 ft 154 kts 139°
2026-05-09 01:44 -16.73597 145.68411 2689 ft 149 kts 146°
2026-05-09 01:45 -16.74510 145.68901 2488 ft 148 kts 153°
2026-05-09 01:45 -16.75448 145.69325 2312 ft 146 kts 153°
2026-05-09 01:45 -16.76363 145.69738 2119 ft 143 kts 153°
2026-05-09 01:45 -16.77275 145.70150 1939 ft 140 kts 154°
2026-05-09 01:46 -16.78152 145.70546 1766 ft 136 kts 154°
2026-05-09 01:46 -16.79008 145.70930 1597 ft 130 kts 155°
2026-05-09 01:46 -16.79820 145.71297 1430 ft 126 kts 155°
2026-05-09 01:46 -16.80630 145.71661 1269 ft 126 kts 155°
2026-05-09 01:47 -16.81427 145.72005 1101 ft 122 kts 154°
2026-05-09 01:47 -16.82209 145.72331 998 ft 121 kts 155°
2026-05-09 01:47 -16.82974 145.72700 844 ft 120 kts 152°
2026-05-09 01:47 -16.83721 145.73056 664 ft 117 kts 155°
2026-05-09 01:48 -16.84469 145.73379 485 ft 113 kts 153°
2026-05-09 01:48 -16.85167 145.73709 306 ft 110 kts 153°
2026-05-09 01:48 -16.85890 145.74037 215 ft 121 kts 155°
2026-05-09 01:48 -16.86728 145.74417 21 ft 138 kts 155°
2026-05-09 01:49 -16.87481 145.74762 -3 ft 85 kts 156°
2026-05-09 01:49 -16.87867 145.74937 18 ft 45 kts 157°
2026-05-09 01:49 -16.88074 145.75029 19 ft 32 kts 156°
2026-05-09 01:49 -16.88267 145.75118 19 ft 28 kts 155°
2026-05-09 01:50 -16.88363 145.75171 18 ft 10 kts 124°
2026-05-09 01:50 -16.88346 145.75247 17 ft 13 kts 66°
2026-05-09 01:50 -16.88294 145.75317 17 ft 13 kts
2026-05-09 01:50 -16.88207 145.75279 16 ft 14 kts 335°
2026-05-09 01:51 -16.88110 145.75235 16 ft 16 kts 336°
2026-05-09 01:51 -16.88000 145.75184 16 ft 17 kts 336°
2026-05-09 01:51 -16.87910 145.75168 16 ft 10 kts 39°
2026-05-09 01:51 -16.87865 145.75222 16 ft 11 kts 12°
2026-05-09 01:52 -16.87782 145.75188 17 ft 15 kts 336°
2026-05-09 01:52 -16.87710 145.75154 16 ft 9 kts 336°
2026-05-09 01:52 -16.87640 145.75127 16 ft 10 kts 345°
2026-05-09 01:52 -16.87583 145.75113 16 ft 5 kts 352°
2026-05-09 01:53 -16.87563 145.75137 16 ft 7 kts 67°
2026-05-09 01:53 -16.87546 145.75179 17 ft 4 kts 67°
2026-05-09 01:53 -16.87540 145.75194 16 ft 0 kts 67°